Regional Weather Roundup
Issued by NWS

Home | Current Version | Previous Version | Graphics & Text | Print | Product List | Glossary On
Versions: 1 2 3 4 5 6 7 8 9 10 11 12 13 14 15 16 17 18 19 20 21 22 23 24 25 26 27 28 29 30 31 32 33 34 35 36 37 38 39 40 41 42 43 44 45 46 47 48 49 50
000
ASUS43 KMPX 261501
RWRMN
WEATHER ROUNDUP FOR MINNESOTA
NATIONAL WEATHER SERVICE TWIN CITIES/CHANHASSEN MN
1000 AM CDT MON SEP 26 2016


NOTE: "FAIR" INDICATES FEW OR NO CLOUDS BELOW 12,000 FEET WITH NO
SIGNIFICANT WEATHER AND/OR OBSTRUCTIONS TO VISIBILITY. N/A MEANS
CURRENT SKY AND/OR WEATHER CONDITIONS ARE NOT AVAILABLE.

MNZ060>063-068>070-261600-
   Twin Cities Metro

CITY           SKY/WX    TMP DP  RH WIND       PRES   REMARKS
TWIN CITIES    SUNNY     56  40  55 W13G20    29.93F
ST PAUL        SUNNY     56  40  55 W22G28    29.93F
CRYSTAL        SUNNY     56  38  50 W15G28    29.92F
BLAINE         SUNNY     57  43  58 W14G20    29.91F
LAKEVILLE      SUNNY     55  41  58 W15       29.96S
EDEN PRAIRIE   SUNNY     56  40  55 W14G24    29.94F
LAKEVILLE      SUNNY     55  41  58 W15       29.96S
SOUTH ST PAUL  SUNNY     56  40  54 W14G23    29.93F
LAKE ELMO      FAIR      55  43  62 W16G25    29.92F
$$
MNZ001>005-007-008-013>017-022>024-027-028-261600-
   Northwest Minnesota

CITY           SKY/WX    TMP DP  RH WIND       PRES   REMARKS
BEMIDJI        MOSUNNY   48  39  69 W21G31    29.85S
HALLOCK        SUNNY     54  39  58 NW24G31   29.88S
ROSEAU         PTSUNNY   52  43  71 W16G28    29.80S
WARROAD        CLOUDY    48  43  81 W15G21    29.78S
THIEF RVR FALL SUNNY     51  39  63 NW16G29   29.90R
CROOKSTON      SUNNY     54  43  66 NW18      29.93S
FOSSTON        SUNNY     52  37  58 W18G28    29.90S
DETROIT LAKES  SUNNY     52  37  58 NW21      29.96R
MOORHEAD       SUNNY     55  37  50 W16G22    30.00S
PARK RAPIDS    SUNNY     53  37  54 NW22G38   29.89R
MAHNOMEN       FAIR      50  41  69 W22G31    29.92S
$$
MNZ006-009>011-018-025>026-261600-
   North Central Minnesota

CITY           SKY/WX    TMP DP  RH WIND       PRES   REMARKS
BAUDETTE       CLOUDY    48  44  86 W16       29.73S
FLAG ISLAND    CLOUDY    50  45  81 NW31G39   29.70S
INTL FALLS     CLOUDY    49  45  86 W13G30    29.66R
WASKISH        DRIZZLE   50  43  76 W23G33    29.77S
BIG FORK       LGT RAIN  46  45  93 W7        29.75R
GRAND RAPIDS   CLOUDY    50  42  74 W22G30    29.79S
COOK           DRIZZLE   46  45  93 W18G28    29.68S
WALKER         FAIR      49  40  71 W13G28    29.85S
$$
MNZ012-019>021-037-261600-
   Northeast Minnesota

CITY           SKY/WX    TMP DP  RH WIND       PRES   REMARKS
DULUTH         CLOUDY    50  44  80 W22G33    29.70S
ELY            DRIZZLE   46  45  93 W17G23    29.61S
HIBBING        CLOUDY    47  42  83 W12G22    29.71S
EVELETH        RAIN      47  44  88 W17G26    29.70S
DULUTH HARBOR  CLOUDY    55  46  71 W22G33    29.72F
TWO HARBORS    DRIZZLE   52  46  82 W12G22    29.65S
SILVER BAY     DRIZZLE   52  46  82 W10G16    29.61S
GRAND MARAIS     N/A     53  50  89 VRB6      29.52S
G MARAIS ARPRT LGT RAIN  48  43  81 W8G23     29.52S
$$
MNZ029>031-032-039>041-046>048-054>057-064-261600-
   West Central Minnesota

CITY           SKY/WX    TMP DP  RH WIND       PRES   REMARKS
FERGUS FALLS   SUNNY     52  39  62 W18       30.02S
MORRIS         SUNNY     57  37  47 NW24G32   30.01S
ALEXANDRIA     SUNNY     52  39  61 NW21G28   29.99R
ELBOW LAKE     FAIR      51  38  62 NW16G24   30.02R
GLENWOOD       SUNNY     54  39  58 W21G30    29.99S
BENSON         SUNNY     57  36  44 NW18G25   30.02S
MADISON          N/A     61  39  44 W18G26    30.06S
WILLMAR        FAIR      57  41  54 W15G23    30.02S
$$
MNZ033>034-036-042>043-049>051-058-059-261600-
   Central Minnesota

CITY           SKY/WX    TMP DP  RH WIND       PRES   REMARKS
ST CLOUD       SUNNY     54  40  59 W21G29    29.93S
SAUK CENTRE    FAIR      52  38  59 W15G28    29.97R
PAYNESVILLE    SUNNY     55  38  53 W18       29.98S
AITKIN         MOSUNNY   54  37  54 W9G25     29.82S
PINE RIVER     MOSUNNY   48  41  76 W9G21     29.90S
BRAINERD       CLOUDY    50  39  66 W16G26    29.88S
STAPLES        MOSUNNY   52  37  58 W20G30    29.91S
LITTLE FALLS   SUNNY     52  37  58 W18G28    29.92S
LITCHFIELD     SUNNY     55  41  58 W15G24    29.98F
BUFFALO        SUNNY     55  40  57 W15G21    29.96S
MAPLE LAKE     SUNNY     56  41  57 W17G24    29.96S
HUTCHINSON     SUNNY     57  40  53 W15G24    30.00S
$$
MNZ037-044-045-052-053-261600-
   East Central Minnesota

CITY           SKY/WX    TMP DP  RH WIND       PRES   REMARKS
PRINCETON      SUNNY     55  41  58 W21G28    29.91S
MORA           SUNNY     54  39  58 W23G30    29.88S
CAMBRIDGE      SUNNY     55  43  62 W16G26    29.87S
MOOSE LAKE     MOSUNNY   52  39  62 W13G25    29.78F
HINCKLEY       FAIR      54  43  66 W12G25    29.84S
CLOQUET        CLOUDY    52  41  66 W22G31    29.74S
MCGREGOR         N/A    N/A N/A N/A MISG        N/A
$$
MNZ071>073-080-081-089-090-097-098-261600-
   Southwest Minnesota

CITY           SKY/WX    TMP DP  RH WIND       PRES   REMARKS
MONTEVIDEO     SUNNY     59  37  44 NW14G21   30.06S
GRANITE FALLS  SUNNY     59  39  47 W16G23    30.07S
CANBY          SUNNY     57  40  52 NW18G24   30.09F
MARSHALL       SUNNY     58  37  45 W23G31    30.07F
REDWOOD FALLS  SUNNY     58  36  43 W23G30    30.03F
OLIVIA         SUNNY     55  37  50 W17G25    30.01S
PIPESTONE      SUNNY     55  36  47 NW15      30.13S
WINDOM         SUNNY     57  36  44 W16G22    30.08F
WORTHINGTON    SUNNY     53  38  56 W14G22    30.13S
JACKSON        SUNNY     57  32  38 W15G23    30.10S
TRACY          SUNNY     58  37  45 W10G21    30.09S
$$
MNZ065>067-074>077-082>085-091>093-261600-
   South Central Minnesota

CITY           SKY/WX    TMP DP  RH WIND       PRES   REMARKS
MANKATO        SUNNY     56  38  50 W13       30.03S
ST JAMES       SUNNY     59  36  41 W16G23    30.06F
FAIRMONT       SUNNY     58  35  42 NW20G25   30.08S
GLENCOE        SUNNY     56  43  60 W12G20    29.98F
FARIBAULT      SUNNY     57  41  54 W15G23    30.00S
OWATONNA       SUNNY     57  37  47 W20G25    30.01S
WASECA         SUNNY     55  37  50 W20G25    30.04S
ALBERT LEA     SUNNY     57  37  47 W10G22    30.04S
$$
MNZ078>079-086>088-094>096-261600-
   Southeast Minnesota

CITY           SKY/WX    TMP DP  RH WIND       PRES   REMARKS
ROCHESTER      SUNNY     56  39  53 W20G29    30.00R
RED WING       SUNNY     57  39  51 W21G26    29.92F
STANTON        SUNNY     56  40  53 W17       29.96S
DODGE CENTER   SUNNY     55  39  54 W21       29.99F
WINONA         SUNNY     57  39  51 W12G22    29.95S
AUSTIN         SUNNY     55  37  50 W15G23    30.02S
PRESTON        SUNNY     55  39  54 W18G29    30.00F
$$
ABBREVIATIONS USED IN REMARKS
   TC - TEMPERATURES IN CELSIUS
  WCI - WIND CHILL INDEX
   HX - HEAT INDEX
  VSB - VISIBILITY
$$




USA.gov is the U.S. government's official web portal to all federal, state and local government web resources and services.